Terminal Aerodrome Forecast
Issued by NWS

Home | Current Version | Previous Version | Text Only | Print | Product List | Glossary On
Versions: 1 2 3 4 5 6 7 8 9 10 11 12 13 14 15 16
000
FTUS43 KDLH 242000 AAA
TAFHYR
TAF AMD
KHYR 242002Z 2420/2518 15008KT P6SM -RA SCT040 OVC060
     FM242200 14006KT 6SM -RA BKN050 OVC080
     FM250400 08008KT 4SM -RA BR OVC025
     FM250700 07010KT 1 1/2SM RA BR OVC009
     FM251200 05005KT 3SM -RA BR OVC008=

USA.gov is the U.S. government's official web portal to all federal, state and local government web resources and services.